This is the latest recevied weather packets stored in our database for station/object DC1MAK-13. If no packets are shown the sender has not sent any weather packets the latest 10 day(s).
| Time | Temp. | Humidity | Pressure | Rain* | Wind** | Luminosity | Snow |
|---|---|---|---|---|---|---|---|
| 1787837047 | 30.56° C | 39% | 984.1 hPa | - | - | - | - |
| 1787836747 | 30.56° C | 37% | 984 hPa | - | - | - | - |
| 1787836736 | 30.56° C | 37% | 984 hPa | - | - | - | - |
| 1787836438 | 30.56° C | 40% | 984 hPa | - | - | - | - |
| 1787836432 | 30.56° C | 40% | 984 hPa | - | - | - | - |
| 1787836129 | 30° C | 40% | 984 hPa | - | - | - | - |
| 1787835831 | 30.56° C | 40% | 984 hPa | - | - | - | - |
| 1787835825 | 30.56° C | 40% | 984 hPa | - | - | - | - |
| 1787835522 | 31.11° C | 38% | 984.1 hPa | - | - | - | - |
| 1787835227 | 31.11° C | 37% | 984.1 hPa | - | - | - | - |
| 1787835219 | 31.11° C | 37% | 984.1 hPa | - | - | - | - |
| 1787834927 | 31.11° C | 38% | 984.2 hPa | - | - | - | - |
| 1787834915 | 31.11° C | 38% | 984.2 hPa | - | - | - | - |
| 1787834618 | 31.11° C | 39% | 984.3 hPa | - | - | - | - |
| 1787834612 | 31.11° C | 39% | 984.3 hPa | - | - | - | - |
| 1787834314 | 30.56° C | 38% | 984.2 hPa | - | - | - | - |
| 1787834308 | 30.56° C | 38% | 984.2 hPa | - | - | - | - |
| 1787834011 | 30.56° C | 38% | 984.3 hPa | - | - | - | - |
| 1787834005 | 30.56° C | 38% | 984.3 hPa | - | - | - | - |
| 1787833407 | 31.11° C | 40% | 984.5 hPa | - | - | - | - |
| 1787833100 | 31.11° C | 40% | 984.5 hPa | - | - | - | - |
| 1787833094 | 31.11° C | 40% | 984.5 hPa | - | - | - | - |
| 1787832797 | 30.56° C | 41% | 984.5 hPa | - | - | - | - |
| 1787832791 | 30.56° C | 41% | 984.5 hPa | - | - | - | - |
| 1787832493 | 30° C | 41% | 984.6 hPa | - | - | - | - |
* Rain since midnight (hover to see other rain measurements)
** Current wind speed in m/s (hover to see current wind gust speed)